Meteo orario Godziszewo

Oggi, 20 Aprile, Martedi

Tempo Temperatura Precipitazioni Vento Pressione Umidità
00:00 +5°C° 0 mm 3 m/s 759 mm Hg 64%
01:00 +5°C° 0 mm 3 m/s 759 mm Hg 66%
02:00 +5°C° 0 mm 2 m/s 759 mm Hg 68%
03:00 +5°C° 0 mm 2 m/s 759 mm Hg 69%
04:00 +5°C° 0 mm 2 m/s 759 mm Hg 71%
05:00 +6°C° 0 mm 2 m/s 758 mm Hg 70%
06:00 +7°C° 0 mm 2 m/s 758 mm Hg 68%
07:00 +8°C° 0 mm 2 m/s 758 mm Hg 67%
08:00 +10°C° 0 mm 2 m/s 758 mm Hg 62%
09:00 +13°C° 0 mm 2 m/s 758 mm Hg 58%
10:00 +15°C° 0 mm 1 m/s 758 mm Hg 53%
11:00 +15°C° 0 mm 2 m/s 757 mm Hg 51%
12:00 +16°C° 0 mm 2 m/s 757 mm Hg 49%
13:00 +17°C° 0 mm 3 m/s 757 mm Hg 48%
14:00 +16°C° 0 mm 3 m/s 757 mm Hg 51%
15:00 +14°C° 0 mm 3 m/s 756 mm Hg 54%
16:00 +14°C° 0 mm 4 m/s 756 mm Hg 58%
17:00 +12°C° 0 mm 3 m/s 756 mm Hg 65%
18:00 +10°C° 0 mm 3 m/s 756 mm Hg 72%
19:00 +8°C° 0 mm 3 m/s 756 mm Hg 79%
20:00 +7°C° 0 mm 2 m/s 756 mm Hg 78%
21:00 +7°C° 0 mm 2 m/s 756 mm Hg 77%
22:00 +6°C° 0 mm 2 m/s 756 mm Hg 76%
23:00 +5°C° 0 mm 2 m/s 756 mm Hg 77%

Domani, 21 Aprile, Mercoledi

Tempo Temperatura Precipitazioni Vento Pressione Umidità
00:00 +5°C° 0 mm 2 m/s 756 mm Hg 78%
01:00 +5°C° 0 mm 2 m/s 756 mm Hg 79%
02:00 +4°C° 0 mm 2 m/s 756 mm Hg 80%
03:00 +4°C° 0 mm 2 m/s 755 mm Hg 82%
04:00 +4°C° 0 mm 2 m/s 755 mm Hg 83%
05:00 +5°C° 0 mm 2 m/s 755 mm Hg 78%
06:00 +6°C° 0 mm 2 m/s 755 mm Hg 74%
07:00 +8°C° 0 mm 2 m/s 755 mm Hg 70%
08:00 +9°C° 0 mm 3 m/s 755 mm Hg 64%
09:00 +11°C° 0 mm 3 m/s 755 mm Hg 57%
10:00 +13°C° 0 mm 4 m/s 755 mm Hg 51%
11:00 +13°C° 0 mm 4 m/s 755 mm Hg 51%
12:00 +13°C° 0 mm 5 m/s 754 mm Hg 52%
13:00 +14°C° 0 mm 5 m/s 754 mm Hg 52%
14:00 +11°C° 0.1 mm 6 m/s 754 mm Hg 59%
15:00 +10°C° 0.1 mm 6 m/s 754 mm Hg 66%
16:00 +9°C° 0.1 mm 6 m/s 754 mm Hg 72%
17:00 +8°C° 0 mm 6 m/s 754 mm Hg 68%
18:00 +7°C° 0 mm 6 m/s 754 mm Hg 64%
19:00 +5°C° 0 mm 6 m/s 754 mm Hg 60%
20:00 +4°C° 0 mm 6 m/s 754 mm Hg 60%
21:00 +3°C° 0 mm 6 m/s 755 mm Hg 60%
22:00 +2°C° 0 mm 6 m/s 755 mm Hg 60%
23:00 +2°C° 0 mm 7 m/s 755 mm Hg 64%

Dopodomani, 22 Aprile, Giovedi

Tempo Temperatura Precipitazioni Vento Pressione Umidità
00:00 0°C° 0 mm 7 m/s 755 mm Hg 68%
01:00 0°C° 0 mm 7 m/s 754 mm Hg 71%
02:00 0°C° 0 mm 7 m/s 754 mm Hg 71%
03:00 0°C° 0 mm 7 m/s 754 mm Hg 70%
04:00 +2°C° 0 mm 7 m/s 754 mm Hg 69%
05:00 +2°C° 0 mm 7 m/s 754 mm Hg 71%
06:00 +3°C° 0 mm 7 m/s 754 mm Hg 72%
07:00 +3°C° 0 mm 7 m/s 754 mm Hg 73%
08:00 +4°C° 0.1 mm 7 m/s 754 mm Hg 68%
09:00 +5°C° 0.1 mm 7 m/s 755 mm Hg 63%
10:00 +6°C° 0.1 mm 7 m/s 755 mm Hg 58%
11:00 +6°C° 0.4 mm 7 m/s 755 mm Hg 58%
12:00 +6°C° 0.4 mm 7 m/s 755 mm Hg 58%
13:00 +6°C° 0.4 mm 8 m/s 755 mm Hg 57%
14:00 +6°C° 0.1 mm 8 m/s 755 mm Hg 55%
15:00 +5°C° 0.1 mm 8 m/s 756 mm Hg 53%
16:00 +5°C° 0.1 mm 8 m/s 756 mm Hg 51%
17:00 +4°C° 0 mm 8 m/s 756 mm Hg 53%
18:00 +4°C° 0 mm 7 m/s 757 mm Hg 55%
19:00 +3°C° 0 mm 7 m/s 757 mm Hg 56%
20:00 +3°C° 0 mm 6 m/s 757 mm Hg 56%
21:00 +3°C° 0 mm 6 m/s 757 mm Hg 56%
22:00 +2°C° 0 mm 5 m/s 757 mm Hg 56%
23:00 +2°C° 0 mm 5 m/s 758 mm Hg 61%

23 Aprile, Venerdi

Tempo Temperatura Precipitazioni Vento Pressione Umidità
00:00 +1°C° 0 mm 5 m/s 758 mm Hg 66%
01:00 +1°C° 0 mm 5 m/s 758 mm Hg 71%
02:00 +1°C° 0 mm 5 m/s 758 mm Hg 75%
03:00 0°C° 0 mm 5 m/s 758 mm Hg 80%
04:00 0°C° 0 mm 5 m/s 758 mm Hg 85%
05:00 +1°C° 0 mm 5 m/s 758 mm Hg 82%
06:00 +2°C° 0 mm 5 m/s 759 mm Hg 78%
07:00 +3°C° 0 mm 5 m/s 759 mm Hg 74%
08:00 +4°C° 0 mm 6 m/s 759 mm Hg 63%
09:00 +5°C° 0 mm 7 m/s 760 mm Hg 52%
10:00 +6°C° 0 mm 8 m/s 760 mm Hg 40%
11:00 +6°C° 0 mm 8 m/s 760 mm Hg 39%
12:00 +6°C° 0 mm 8 m/s 761 mm Hg 37%
13:00 +7°C° 0 mm 9 m/s 761 mm Hg 36%
14:00 +6°C° 0 mm 8 m/s 761 mm Hg 37%
15:00 +6°C° 0 mm 8 m/s 762 mm Hg 39%
16:00 +6°C° 0 mm 8 m/s 762 mm Hg 41%
17:00 +5°C° 0 mm 7 m/s 762 mm Hg 44%
18:00 +4°C° 0 mm 6 m/s 762 mm Hg 46%
19:00 +3°C° 0 mm 6 m/s 762 mm Hg 49%
20:00 +2°C° 0 mm 5 m/s 763 mm Hg 53%
21:00 +1°C° 0 mm 4 m/s 763 mm Hg 57%
22:00 +1°C° 0 mm 4 m/s 763 mm Hg 61%
23:00 0°C° 0 mm 4 m/s 763 mm Hg 65%

24 Aprile, Sabato

Tempo Temperatura Precipitazioni Vento Pressione Umidità
00:00 0°C° 0 mm 4 m/s 763 mm Hg 69%
01:00 0°C° 0 mm 4 m/s 763 mm Hg 73%
02:00 0°C° 0 mm 3 m/s 763 mm Hg 77%
03:00 0°C° 0 mm 3 m/s 763 mm Hg 80%
04:00 0°C° 0 mm 3 m/s 762 mm Hg 83%
05:00 +1°C° 0 mm 3 m/s 762 mm Hg 80%
06:00 +2°C° 0 mm 3 m/s 762 mm Hg 76%
07:00 +3°C° 0 mm 3 m/s 762 mm Hg 73%
08:00 +5°C° 0.1 mm 4 m/s 762 mm Hg 69%
09:00 +6°C° 0.1 mm 4 m/s 762 mm Hg 65%
10:00 +7°C° 0.1 mm 4 m/s 762 mm Hg 61%
11:00 +7°C° 0.3 mm 5 m/s 762 mm Hg 63%
12:00 +7°C° 0.3 mm 5 m/s 762 mm Hg 66%
13:00 +7°C° 0.3 mm 6 m/s 762 mm Hg 68%
14:00 +7°C° 0.1 mm 6 m/s 762 mm Hg 60%
15:00 +7°C° 0.1 mm 6 m/s 762 mm Hg 51%
16:00 +7°C° 0.1 mm 6 m/s 762 mm Hg 42%
17:00 +5°C° 0 mm 6 m/s 762 mm Hg 48%
18:00 +5°C° 0 mm 5 m/s 762 mm Hg 53%
19:00 +3°C° 0 mm 4 m/s 762 mm Hg 59%
20:00 +1°C° 0 mm 4 m/s 762 mm Hg 64%
21:00 +2°C° 0 mm 3 m/s 763 mm Hg 70%
22:00 +1°C° 0 mm 3 m/s 763 mm Hg 75%
23:00 +1°C° 0 mm 2 m/s 763 mm Hg 76%

25 Aprile, Domenica

Tempo Temperatura Precipitazioni Vento Pressione Umidità
00:00 +1°C° 0 mm 2 m/s 763 mm Hg 78%
01:00 +1°C° 0 mm 2 m/s 763 mm Hg 79%
02:00 +1°C° 0 mm 2 m/s 763 mm Hg 79%
03:00 -1°C° 0 mm 2 m/s 763 mm Hg 80%
04:00 -1°C° 0 mm 2 m/s 763 mm Hg 81%
05:00 +2°C° 0 mm 2 m/s 763 mm Hg 74%
06:00 +2°C° 0 mm 3 m/s 763 mm Hg 67%
07:00 +4°C° 0 mm 4 m/s 763 mm Hg 60%
08:00 +5°C° 0 mm 5 m/s 763 mm Hg 55%
09:00 +4°C° 0 mm 6 m/s 763 mm Hg 50%
10:00 +5°C° 0 mm 7 m/s 763 mm Hg 45%
11:00 +5°C° 0 mm 7 m/s 763 mm Hg 45%
12:00 +5°C° 0 mm 7 m/s 763 mm Hg 45%
13:00 +5°C° 0 mm 7 m/s 763 mm Hg 45%
14:00 +5°C° 0 mm 7 m/s 763 mm Hg 46%
15:00 +5°C° 0 mm 7 m/s 763 mm Hg 46%
16:00 +4°C° 0 mm 7 m/s 763 mm Hg 47%
17:00 +4°C° 0 mm 6 m/s 763 mm Hg 53%
18:00 +3°C° 0 mm 5 m/s 763 mm Hg 59%
19:00 +3°C° 0 mm 4 m/s 762 mm Hg 64%
20:00 +1°C° 0 mm 4 m/s 762 mm Hg 67%
21:00 +1°C° 0 mm 4 m/s 762 mm Hg 71%
22:00 +1°C° 0 mm 3 m/s 762 mm Hg 74%
23:00 0°C° 0 mm 4 m/s 762 mm Hg 75%
Mostrare altro

Abbiamo bisogno del tuo consenso

Meteoprog e i nostri fornitori di servizi possono memorizzare e accedere a dati personali come cookie, identificatori di dispositivi o altre tecnologie simili sul tuo dispositivo e possono elaborare tali dati per personalizzare i contenuti e gli annunci, nonché fornire funzionalità dei social media e analizzarne il traffico.

  • Archiviare e/o accedere alle informazioni sul tuo dispositivo

    Cookie, identificatori di dispositivi o altre informazioni possono essere memorizzati o resi accessibili sul tuo dispositivo per le finalità sopra indicate.

  • Annunci e contenuti personalizzati, misurazione di annunci e contenuti, approfondimenti sul pubblico e sviluppo di prodotti

    Gli annunci e i contenuti possono essere personalizzati in base a un profilo. È possibile aggiungere più dati per personalizzare meglio annunci e contenuti. È possibile misurare il rendimento degli annunci e dei contenuti. È possibile ricavare informazioni sul pubblico che ha visto gli annunci e i contenuti. Tali dati possono essere utilizzati per sviluppare o migliorare l'esperienza, i sistemi e il software dell'utente.

Cliccando su “Accetto”, acconsenti all'uso di cookie, identificatori di dispositivo, web beacon o altre tecnologie simili. Puoi modificare le impostazioni nel browser del tuo dispositivo.

Per determinati scopi, è possibile fare affidamento su interessi legali, piuttosto che sul consenso. Puoi approfondire questo argomento consultando la nostra Informativa sulla privacy e sui cookie.